Terminal Aerodrome Forecast
Issued by NWS Charleston, WV

Current Version | Previous Version | Text Only | Print | Product List | Glossary Off
Versions: 1 2 3 4 5 6 7 8 9 10 11 12 13 14 15 16 17 18 19 20 21 22 23 24

000
FTUS41 KRLX 250200 AAA
TAFPKB
TAF AMD
KPKB 250241Z 2503/2524 VRB02KT P6SM BKN250
     FM250500 00000KT P6SM BKN100
     FM251500 08004KT P6SM BKN050
     FM251800 08006KT 6SM -SHRA OVC045
     FM252000 08008G13KT 5SM SHRA BR OVC030
     FM252300 08008G13KT P6SM BKN020=

USA.gov is the U.S. government's official web portal to all federal, state and local government web resources and services.